Home > Weather > Basse-Terre > Past weeks

Flag for Guadeloupe Weather for the Past 2 Weeks in Basse-Terre, Guadeloupe

Now
77 °F

Passing clouds.


Feels Like: 79 °F
Forecast: 72 / 80 °F
Wind: 6 mph from East

Location: Le Raizet - Guadeloupe

Current Time: Feb 9, 2016 at 12:15:10 AM

Latest Report: Feb 8, 2016 at 11:30 PM


Visibility: N/A

Pressure: 30.04 "Hg

Humidity: 79%

Dew point: 70 °F

Location of Basse-TerreLocation

Historic Weather in Basse-Terre — Graph

°F

Basse-Terre Temperature Yesterday

Maximum temperature yesterday: 84 °F (at 10:30 AM)
Minimum temperature yesterday: 73 °F (at 3:30 AM)
Average temperature yesterday: 79 °F

High & Low Weather Summary for the Past Weeks

 TemperatureHumidityPressure
High86 °F (Feb 3, 11:00 AM)100% (Feb 2, 5:00 AM)30.15 "Hg (Feb 2, 5:00 AM)
Low66 °F (Feb 5, 3:00 AM)48% (Jan 27, 11:30 AM)29.86 "Hg (Feb 4, 2:30 AM)
Average77 °F75%30.02 "Hg
* Reported Jan 24 11:00 PM — Feb 8 11:00 PM, Basse-Terre, Weather by CustomWeather, © 2016

Note: Actual official high and low records may vary slightly from our data, if they occured in-between our weather recording intervals... More about our weather records

Advertising

Basse-Terre Weather History for the Previous 24 Hours

 ConditionsComfort  
Time TempWeatherWind HumidityBarometerVisibility
11:00 PM
Mon, Feb 8
77 °FPassing clouds.6 mph79%30.07 "HgN/A
10:30 PM77 °FPassing clouds.8 mph79%30.04 "HgN/A
10:00 PM77 °FPassing clouds.9 mph79%30.04 "HgN/A
9:30 PM77 °FPassing clouds.6 mph79%30.04 "HgN/A
9:00 PM77 °FClear.7 mph79%30.04 "HgN/A
8:30 PM77 °FClear.9 mph79%30.01 "HgN/A
8:00 PM77 °FClear.9 mph79%30.04 "HgN/A
7:30 PM79 °FPartly cloudy.9 mph74%30.04 "HgN/A
7:00 PM79 °FPassing clouds.10 mph79%30.01 "HgN/A
6:30 PM79 °FClear.12 mph74%30.01 "HgN/A
6:00 PM79 °FPassing clouds.12 mph74%30.01 "HgN/A
5:30 PM81 °FPartly sunny.14 mph70%29.98 "HgN/A
5:00 PM81 °FPartly sunny.16 mph70%29.98 "HgN/A
4:30 PM82 °FPartly sunny.15 mph66%29.98 "HgN/A
4:00 PM82 °FScattered clouds.16 mph66%29.98 "HgN/A
3:30 PM82 °FBroken clouds.20 mph66%29.98 "HgN/A
3:00 PM82 °FBroken clouds.17 mph66%29.98 "HgN/A
2:30 PM82 °FPartly sunny.16 mph66%29.98 "HgN/A
2:00 PM84 °FPartly sunny.18 mph66%29.98 "HgN/A
1:30 PM84 °FPartly sunny.18 mph62%30.01 "HgN/A
1:00 PM84 °FBroken clouds.17 mph62%30.01 "HgN/A
12:30 PM84 °FPartly sunny.17 mph62%30.04 "HgN/A
12:00 PM81 °FBroken clouds.16 mph74%30.04 "HgN/A
11:30 AM82 °FPartly sunny.16 mph66%30.07 "HgN/A
11:00 AM82 °FBroken clouds.16 mph70%30.07 "HgN/A
10:30 AM84 °FPartly sunny.17 mph66%30.07 "HgN/A
10:00 AM82 °FBroken clouds.16 mph66%30.09 "HgN/A
9:30 AM81 °FPartly sunny.16 mph70%30.07 "HgN/A
9:00 AM81 °FPartly sunny.15 mph74%30.07 "HgN/A
8:30 AM81 °FBroken clouds.10 mph74%30.07 "HgN/A
8:00 AM79 °FPartly sunny.5 mph79%30.07 "HgN/A
7:30 AM77 °FPartly sunny.6 mph79%30.04 "HgN/A
7:00 AM75 °FScattered clouds.6 mph83%30.04 "HgN/A
6:30 AM75 °FPassing clouds.6 mph83%30.04 "HgN/A
6:00 AM75 °FPassing clouds.6 mph83%30.01 "HgN/A
5:30 AM75 °FClear.5 mph83%30.01 "HgN/A
5:00 AM75 °FClear.5 mph83%30.01 "HgN/A
4:30 AM73 °FPassing clouds.5 mph89%30.01 "HgN/A
4:00 AM75 °FPassing clouds.3 mph83%30.01 "HgN/A
3:30 AM73 °FPassing clouds.2 mph89%30.01 "HgN/A
3:00 AM75 °FPassing clouds.3 mph83%30.01 "HgN/A
2:30 AM75 °FPassing clouds.3 mph83%30.01 "HgN/A
2:00 AM75 °FClear.5 mph83%30.04 "HgN/A
1:30 AM75 °FClear.5 mph83%30.04 "HgN/A
1:00 AM75 °FPassing clouds.6 mph83%30.04 "HgN/A
12:30 AM75 °FClear.7 mph83%30.04 "HgN/A
Weather by CustomWeather, © 2016

See weather overviewHow to use our weather pages